Location: *
(46.3500°N, 10.9000°E)
Time: 22:42:39
(UTC+00:00)

Explorer 7 - Pass Details

Date: 19 April 2021
Orbit: 484 x 677 km, 50.3° (Epoch: 05 May)

Event Time Altitude Azimuth Distance (km) Brightness Sun altitude
Rises 03:08:17 0° 282° (WNW) 2,930 - -12.5°
Reaches altitude 10° 03:12:08 10° 250° (WSW) 2,056 - -11.9°
Maximum altitude 03:13:44 12° 230° (SW) 1,960 - -11.7°
Drops below altitude 10° 03:15:22 10° 210° (SSW) 2,077 - -11.4°
Exits shadow 03:16:14 - 201° (SSW) 2,219 9.4 -11.3°
Sets 03:19:20 0° 178° (S) 3,005 10.3 -10.8°
